TimeMDT,TemperatureF,Dew PointF,Humidity,Sea Level PressureIn,VisibilityMPH,Wind Direction,Wind SpeedMPH,Gust SpeedMPH,PrecipitationIn,Events,Conditions,WindDirDegrees,DateUTC
12:58 AM,55.9,16.9,22,29.52,10.0,West,6.9,-,N/A,,Clear,280,2013-04-30 06:58:00
1:58 AM,59.9,17.2,19,29.48,10.0,Variable,5.8,16.1,N/A,,Clear,0,2013-04-30 07:58:00
2:58 AM,57.7,16.7,20,29.49,10.0,Variable,3.5,-,N/A,,Clear,0,2013-04-30 08:58:00
3:58 AM,49.5,19.9,31,29.52,10.0,NE,6.9,-,N/A,,Clear,40,2013-04-30 09:58:00
4:58 AM,46.8,19.8,34,29.53,10.0,Variable,1.2,-,N/A,,Clear,0,2013-04-30 10:58:00
5:58 AM,44.4,21.4,40,29.56,10.0,NNW,8.1,-,N/A,,Partly Cloudy,330,2013-04-30 11:58:00
6:58 AM,46.8,22.6,39,29.57,10.0,NNE,6.9,-,N/A,,Clear,20,2013-04-30 12:58:00
7:58 AM,53.4,25.3,34,29.59,10.0,NNW,25.3,-,N/A,,Clear,340,2013-04-30 13:58:00
8:58 AM,51.6,31.1,45,29.62,10.0,NNW,18.4,-,N/A,,Clear,330,2013-04-30 14:58:00
9:58 AM,55.6,31.1,39,29.62,10.0,NNW,8.1,-,N/A,,Clear,330,2013-04-30 15:58:00
10:58 AM,64.2,29.8,27,29.58,10.0,SSE,11.5,-,N/A,,Partly Cloudy,160,2013-04-30 16:58:00
11:33 AM,68.0,26.6,21,29.80,10.0,SSE,18.4,-,N/A,,Scattered Clouds,160,2013-04-30 17:33:00
11:40 AM,68.0,26.6,21,29.80,10.0,SSE,18.4,24.2,N/A,,Scattered Clouds,150,2013-04-30 17:40:00
11:41 AM,68.0,26.6,21,29.80,10.0,SE,17.3,24.2,N/A,,Scattered Clouds,140,2013-04-30 17:41:00
11:58 AM,67.5,28.4,23,29.57,10.0,SSE,17.3,27.6,N/A,,Scattered Clouds,150,2013-04-30 17:58:00
12:58 PM,68.7,27.1,21,29.53,10.0,SSE,23.0,27.6,N/A,,Scattered Clouds,150,2013-04-30 18:58:00
1:49 PM,68.0,26.6,21,29.76,10.0,SE,12.7,25.3,N/A,,Mostly Cloudy,130,2013-04-30 19:49:00
1:55 PM,68.0,26.6,21,29.77,10.0,SSE,13.8,23.0,N/A,,Mostly Cloudy,150,2013-04-30 19:55:00
1:56 PM,68.0,26.6,21,29.77,10.0,SSE,13.8,23.0,N/A,,Mostly Cloudy,160,2013-04-30 19:56:00
1:58 PM,68.2,26.6,21,29.52,10.0,SSE,16.1,21.9,N/A,,Mostly Cloudy,160,2013-04-30 19:58:00
1:59 PM,68.0,26.6,21,29.77,10.0,SE,15.0,21.9,N/A,,Mostly Cloudy,140,2013-04-30 19:59:00
2:08 PM,68.0,26.6,21,29.77,10.0,South,18.4,25.3,N/A,,Mostly Cloudy,170,2013-04-30 20:08:00
2:09 PM,68.0,26.6,21,29.77,10.0,South,18.4,25.3,N/A,,Mostly Cloudy,170,2013-04-30 20:09:00
2:23 PM,69.8,26.6,20,29.77,10.0,ESE,16.1,24.2,N/A,,Mostly Cloudy,120,2013-04-30 20:23:00
2:33 PM,68.0,28.4,23,29.77,10.0,SSE,16.1,23.0,N/A,,Scattered Clouds,160,2013-04-30 20:33:00
2:34 PM,68.0,28.4,23,29.77,10.0,SSE,15.0,23.0,N/A,,Mostly Cloudy,160,2013-04-30 20:34:00
2:55 PM,68.0,26.6,21,29.76,10.0,South,17.3,-,N/A,,Mostly Cloudy,170,2013-04-30 20:55:00
2:58 PM,68.4,27.3,22,29.52,10.0,SSE,16.1,-,N/A,,Mostly Cloudy,160,2013-04-30 20:58:00
3:08 PM,68.0,28.4,23,29.76,10.0,SE,19.6,-,N/A,,Mostly Cloudy,130,2013-04-30 21:08:00
3:09 PM,68.0,28.4,23,29.76,10.0,SE,17.3,-,N/A,,Mostly Cloudy,130,2013-04-30 21:09:00
3:58 PM,66.7,28.9,24,29.57,10.0,ESE,17.3,26.5,N/A,,Partly Cloudy,110,2013-04-30 21:58:00
4:21 PM,64.4,30.2,28,29.78,10.0,ENE,12.7,-,N/A,,Partly Cloudy,60,2013-04-30 22:21:00
4:58 PM,57.6,37.0,46,29.68,10.0,NNW,16.1,29.9,N/A,,Clear,330,2013-04-30 22:58:00
5:58 PM,54.3,37.4,53,29.70,10.0,NNW,11.5,-,N/A,,Clear,340,2013-04-30 23:58:00
6:58 PM,53.2,37.2,55,29.70,10.0,NNW,8.1,-,N/A,,Clear,340,2013-05-01 00:58:00
7:58 PM,50.2,35.8,58,29.71,10.0,NNW,11.5,-,N/A,,Clear,340,2013-05-01 01:58:00
8:58 PM,46.9,34.7,62,29.77,10.0,NNW,13.8,-,N/A,,Clear,340,2013-05-01 02:58:00
9:58 PM,45.9,33.4,62,29.80,10.0,NNW,17.3,24.2,N/A,,Clear,330,2013-05-01 03:58:00
10:58 PM,45.0,29.5,55,29.81,10.0,NNW,17.3,-,N/A,,Overcast,340,2013-05-01 04:58:00
11:58 PM,42.1,30.6,64,29.83,10.0,North,16.1,-,N/A,,Overcast,350,2013-05-01 05:58:00